Cullman, AL

2:00 AM CDT on September 22, 2017 (GMT -0500)
Cullman

Weather History for K3A1 - January, 2013

Change the Weather History Date:

Thursday, January 24, 2013

  Actual Average (KHSV) Record (KHSV)
Temperature  
Mean Temperature 40 °F -  
Max Temperature 47 °F 51 °F 75 °F (1967)
Min Temperature 32 °F 33 °F -4 °F (1963)
Degree Days  
Heating Degree Days 26    
Moisture  
Dew Point 26 °F    
Average Humidity 57    
Maximum Humidity 79    
Minimum Humidity 34    
Precipitation  
Precipitation 0.00 in - - ()
Sea Level Pressure  
Sea Level Pressure 30.31 in    
Wind  
Wind Speed 5 mph (North)    
Max Wind Speed 14 mph    
Max Gust Speed 18 mph    
Visibility 10 miles    
Events Rain    
Averages and records for this station are not official NWS values.
T = Trace of Precipitation, MM = Missing Value Source: NWS Daily Summary

Daily Weather History Graph

Daily Weather History Graph

Search for Another Location

Airport or City:

Trip Planner

Search our weather history database for the weather conditions in past years. The results will help you decide how hot, cold, wet, or windy it might be!

Date:

Astronomy

Jan. 24, 2013 Rise Set
Actual Time 6:49 AM CST 5:09 PM CST
Civil Twilight 6:23 AM CST 5:36 PM CST
Nautical Twilight 5:52 AM CST 6:06 PM CST
Astronomical Twilight 5:22 AM CST 6:36 PM CST
Moon 3:12 PM CST (1/24) 4:45 AM CST (1/24)
Length of Visible Light 11h 13m
Length of Day
10h 20m
Waxing Gibbous, 94% of the Moon is Illuminated
Jan 24
Waxing Gibbous
Jan 26
Full
Feb 3
Last Quarter
Feb 10
New
Feb 17
First Quarter

Hourly Weather History & Observations

Time (CST) Temp. Windchill Dew Point Humidity Pressure Visibility Wind Dir Wind Speed Gust Speed Precip Events Conditions
12:15 AM 47.5 °F - 38.3 °F 70% 30.22 in 10.0 mi Calm Calm - N/A   Mostly Cloudy
12:35 AM 46.4 °F 44.3 °F 38.1 °F 73% 30.22 in 10.0 mi West 4.6 mph - N/A   Mostly Cloudy
12:55 AM 46.0 °F - 37.8 °F 73% 30.22 in 10.0 mi Calm Calm - N/A   Mostly Cloudy
1:15 AM 46.4 °F - 37.8 °F 72% 30.22 in 10.0 mi Calm Calm - N/A   Overcast
1:35 AM 46.4 °F - 38.5 °F 74% 30.23 in 10.0 mi Calm Calm - N/A Rain Rain
1:55 AM 46.2 °F 45.0 °F 39.6 °F 78% 30.23 in 10.0 mi NW 3.5 mph - N/A   Overcast
2:15 AM 46.4 °F - 39.2 °F 76% 30.22 in 10.0 mi Calm Calm - N/A   Mostly Cloudy
2:35 AM 46.0 °F - 39.0 °F 76% 30.22 in 10.0 mi Calm Calm - N/A   Overcast
2:55 AM 45.9 °F - 39.6 °F 79% 30.22 in 10.0 mi Calm Calm - N/A   Overcast
3:15 AM 46.8 °F - 40.1 °F 78% 30.22 in 10.0 mi NNW 4.6 mph - N/A   Overcast
3:35 AM 47.3 °F - 40.1 °F 76% 30.21 in 10.0 mi NNW 6.9 mph - N/A   Mostly Cloudy
3:55 AM 46.6 °F - 39.6 °F 77% 30.22 in 10.0 mi NNW 4.6 mph - N/A   Mostly Cloudy
4:15 AM 46.4 °F 43.5 °F 39.4 °F 77% 30.22 in 10.0 mi North 5.8 mph - N/A   Mostly Cloudy
4:35 AM 45.7 °F 43.4 °F 38.8 °F 77% 30.23 in 10.0 mi NNW 4.6 mph - N/A   Mostly Cloudy
4:55 AM 45.1 °F 41.4 °F 38.3 °F 77% 30.23 in 10.0 mi NNW 6.9 mph - N/A   Mostly Cloudy
5:15 AM 45.0 °F 41.2 °F 37.8 °F 76% 30.25 in 10.0 mi NW 6.9 mph - N/A   Mostly Cloudy
5:35 AM 44.6 °F 40.2 °F 37.0 °F 75% 30.25 in 10.0 mi North 8.1 mph - N/A   Mostly Cloudy
5:55 AM 43.9 °F 39.3 °F 36.7 °F 76% 30.26 in 10.0 mi North 8.1 mph - N/A   Mostly Cloudy
6:15 AM 43.3 °F 38.1 °F 36.0 °F 75% 30.27 in 10.0 mi NNW 9.2 mph - N/A   Mostly Cloudy
6:35 AM 42.8 °F 39.3 °F 35.6 °F 76% 30.28 in 10.0 mi North 5.8 mph - N/A   Scattered Clouds
6:55 AM 41.7 °F 39.8 °F 35.1 °F 77% 30.29 in 10.0 mi North 3.5 mph - N/A   Scattered Clouds
7:15 AM 40.8 °F 36.9 °F 33.8 °F 76% 30.31 in 10.0 mi North 5.8 mph - N/A   Scattered Clouds
7:35 AM 40.1 °F 34.7 °F 32.2 °F 73% 30.32 in 10.0 mi North 8.1 mph - N/A   Clear
7:55 AM 39.4 °F 34.5 °F 30.2 °F 70% 30.33 in 10.0 mi North 6.9 mph - N/A   Scattered Clouds
8:15 AM 39.6 °F 34.7 °F 29.7 °F 68% 30.33 in 10.0 mi North 6.9 mph - N/A   Mostly Cloudy
8:35 AM 39.6 °F 33.5 °F 28.9 °F 66% 30.35 in 10.0 mi North 9.2 mph 16.1 mph N/A   Overcast
8:55 AM 39.0 °F 32.3 °F 28.6 °F 66% 30.36 in 10.0 mi NNE 10.4 mph - N/A   Overcast
9:15 AM 38.8 °F 33.2 °F 27.1 °F 63% 30.37 in 10.0 mi North 8.1 mph - N/A   Overcast
9:35 AM 38.7 °F 30.9 °F 23.0 °F 53% 30.36 in 10.0 mi North 12.7 mph 17.3 mph N/A   Mostly Cloudy
9:55 AM 39.4 °F 33.8 °F 22.8 °F 52% 30.38 in 10.0 mi North 8.1 mph - N/A   Mostly Cloudy
10:15 AM 40.1 °F 34.7 °F 21.0 °F 47% 30.38 in 10.0 mi NNE 8.1 mph - N/A   Clear
10:35 AM 41.2 °F 35.5 °F 21.7 °F 46% 30.39 in 10.0 mi NNW 9.2 mph - N/A   Clear
10:55 AM 41.7 °F 36.1 °F 20.5 °F 43% 30.38 in 10.0 mi NNW 9.2 mph - N/A   Clear
11:15 AM 41.9 °F 36.3 °F 19.0 °F 40% 30.37 in 10.0 mi North 9.2 mph - N/A   Clear
11:35 AM 42.3 °F 35.9 °F 19.2 °F 40% 30.37 in 10.0 mi NNW 11.5 mph 16.1 mph N/A   Clear
11:55 AM 43.2 °F 39.0 °F 19.6 °F 39% 30.36 in 10.0 mi North 6.9 mph - N/A   Clear
12:15 PM 43.0 °F 37.7 °F 20.8 °F 41% 30.35 in 10.0 mi North 9.2 mph - N/A   Clear
12:35 PM 43.0 °F 36.8 °F 19.9 °F 40% 30.36 in 10.0 mi NNW 11.5 mph - N/A   Clear
12:55 PM 43.3 °F 36.5 °F 19.6 °F 39% 30.36 in 10.0 mi NNE 13.8 mph 18.4 mph N/A   Clear
1:15 PM 43.0 °F 37.7 °F 19.4 °F 39% 30.34 in 10.0 mi NNW 9.2 mph 16.1 mph N/A   Clear
1:35 PM 43.7 °F 38.6 °F 19.0 °F 37% 30.34 in 10.0 mi North 9.2 mph - N/A   Clear
1:55 PM 43.7 °F 39.7 °F 17.6 °F 35% 30.34 in 10.0 mi North 6.9 mph - N/A   Clear
2:15 PM 44.2 °F 41.8 °F 17.8 °F 35% 30.33 in 10.0 mi North 4.6 mph - N/A   Clear
2:35 PM 44.2 °F 41.0 °F 18.0 °F 35% 30.33 in 10.0 mi North 5.8 mph - N/A   Clear
2:55 PM 44.2 °F 40.3 °F 18.7 °F 36% 30.33 in 10.0 mi North 6.9 mph - N/A   Clear
3:15 PM 44.1 °F 40.1 °F 18.5 °F 36% 30.33 in 10.0 mi North 6.9 mph - N/A   Clear
3:35 PM 43.9 °F 38.8 °F 18.3 °F 36% 30.33 in 10.0 mi North 9.2 mph - N/A   Clear
3:55 PM 43.3 °F 39.2 °F 17.1 °F 35% 30.33 in 10.0 mi North 6.9 mph - N/A   Clear
4:15 PM 42.6 °F 37.2 °F 15.8 °F 34% 30.33 in 10.0 mi North 9.2 mph - N/A   Clear
4:35 PM 41.4 °F 36.2 °F 15.4 °F 35% 30.33 in 10.0 mi North 8.1 mph - N/A   Clear
4:55 PM 40.3 °F 37.1 °F 16.3 °F 38% 30.34 in 10.0 mi North 4.6 mph - N/A   Clear
5:15 PM 39.0 °F 36.8 °F 16.9 °F 41% 30.33 in 10.0 mi North 3.5 mph - N/A   Clear
5:35 PM 37.9 °F 35.5 °F 17.2 °F 43% 30.33 in 10.0 mi North 3.5 mph - N/A   Clear
5:55 PM 37.0 °F - 18.0 °F 46% 30.34 in 10.0 mi Calm Calm - N/A   Scattered Clouds
6:15 PM 35.1 °F - 20.8 °F 56% 30.34 in 10.0 mi Calm Calm - N/A   Clear
6:35 PM 33.1 °F 30.0 °F 21.6 °F 63% 30.34 in 10.0 mi NNE 3.5 mph - N/A   Clear
6:55 PM 32.7 °F - 22.3 °F 65% 30.35 in 10.0 mi Calm Calm - N/A   Scattered Clouds
7:15 PM 35.2 °F 32.4 °F 19.4 °F 53% 30.34 in 10.0 mi North 3.5 mph - N/A   Mostly Cloudy
7:35 PM 35.8 °F - 19.6 °F 52% 30.33 in 10.0 mi Calm Calm - N/A   Scattered Clouds
7:55 PM 34.0 °F - 21.0 °F 59% 30.33 in 10.0 mi Calm Calm - N/A   Mostly Cloudy
8:15 PM 35.2 °F - 22.6 °F 60% 30.32 in 10.0 mi Calm Calm - N/A   Overcast
8:35 PM 35.6 °F - 23.0 °F 60% 30.32 in 10.0 mi Calm Calm - N/A   Mostly Cloudy
8:55 PM 36.0 °F - 21.7 °F 56% 30.31 in 10.0 mi Calm Calm - N/A   Mostly Cloudy
9:15 PM 36.1 °F 33.5 °F 20.8 °F 54% 30.31 in 10.0 mi NE 3.5 mph - N/A   Overcast
9:35 PM 37.0 °F 34.5 °F 20.8 °F 52% 30.31 in 10.0 mi ENE 3.5 mph - N/A   Overcast
9:55 PM 37.6 °F 35.1 °F 20.1 °F 49% 30.31 in 10.0 mi East 3.5 mph - N/A   Mostly Cloudy
10:15 PM 38.1 °F 34.6 °F 20.7 °F 49% 30.30 in 10.0 mi East 4.6 mph - N/A   Mostly Cloudy
10:35 PM 38.3 °F 32.5 °F 20.8 °F 50% 30.29 in 10.0 mi ESE 8.1 mph - N/A   Mostly Cloudy
10:55 PM 37.9 °F 30.9 °F 20.7 °F 50% 30.29 in 10.0 mi ESE 10.4 mph - N/A   Overcast
11:15 PM 37.8 °F 31.8 °F 19.2 °F 47% 30.28 in 10.0 mi ESE 8.1 mph - N/A   Mostly Cloudy
11:35 PM 37.6 °F 33.1 °F 18.5 °F 46% 30.28 in 10.0 mi East 5.8 mph - N/A   Overcast
11:55 PM 37.6 °F 31.6 °F 17.4 °F 44% 30.28 in 10.0 mi ESE 8.1 mph - N/A   Overcast